F4JFI-13 Weather Reports


time (UTC)temp
C
wind
direction
speed
KPH
gust
KPH
rain 1hr
cm
rain 24hr
cm
rain mn
cm
humidity
%
barometer
mb
20260507164208 22 202 1.6 0.0 0.00 0.00 0.00 50 1009.0
20260507163208 22 302 1.6 0.0 0.00 0.00 0.00 50 1009.0
20260507162208 22 220 1.6 0.0 0.00 0.00 0.00 50 1009.0
20260507161208 22 208 1.6 0.0 0.00 0.00 0.00 52 1009.0
20260507160208 21 138 0.0 0.0 0.00 0.00 0.00 52 1009.0
20260507155208 21 186 3.2 0.0 0.00 0.00 0.00 52 1009.0
20260507154208 21 220 1.6 0.0 0.00 0.00 0.00 54 1009.0
20260507153208 20 94 0.0 0.0 0.00 0.00 0.00 56 1009.2
20260507152218 20 94 0.0 0.0 0.00 0.00 0.00 54 1009.2
20260507151208 20 242 1.6 0.0 0.00 0.00 0.00 56 1009.4
20260507150208 20 164 1.6 0.0 0.00 0.00 0.00 56 1009.4
20260507145208 20 174 1.6 0.0 0.00 0.00 0.00 56 1009.6
20260507144208 21 188 1.6 0.0 0.00 0.00 0.00 54 1009.8
20260507143208 21 158 1.6 0.0 0.00 0.00 0.00 54 1009.8
20260507142213 20 284 1.6 0.0 0.00 0.00 0.00 58 1009.8
20260507141208 20 100 3.2 0.0 0.00 0.00 0.00 58 1010.0
20260507140208 20 132 3.2 0.0 0.00 0.00 0.00 56 1010.2
20260507135208 20 6 1.6 0.0 0.00 0.00 0.00 62 1010.2
20260507134208 20 292 3.2 0.0 0.00 0.00 0.00 62 1010.4
20260507133208 20 238 3.2 0.0 0.00 0.00 0.00 60 1010.6
20260507132213 20 298 1.6 0.0 0.00 0.00 0.00 62 1010.8
20260507131208 20 332 3.2 0.0 0.00 0.00 0.00 64 1010.8
20260507130208 20 316 1.6 0.0 0.00 0.00 0.00 64 1010.8
20260507125207 18 266 1.6 0.0 0.00 0.00 0.00 64 1010.8
20260507124208 18 212 1.6 0.0 0.00 0.00 0.00 66 1011.0
20260507123208 18 240 1.6 0.0 0.00 0.00 0.00 64 1011.2
20260507122213 18 156 1.6 0.0 0.00 0.00 0.00 66 1011.2
20260507121208 18 312 1.6 0.0 0.00 0.00 0.00 68 1011.2
20260507120207 18 64 3.2 0.0 0.00 0.00 0.00 66 1011.4
20260507115208 18 216 1.6 0.0 0.00 0.00 0.00 66 1011.4
20260507114208 17 222 3.2 0.0 0.00 0.00 0.00 70 1011.6
20260507113208 17 160 3.2 0.0 0.00 0.00 0.00 66 1011.6
20260507112218 18 294 3.2 0.0 0.00 0.00 0.00 70 1011.8
20260507111207 17 286 1.6 0.0 0.00 0.00 0.00 76 1011.8
20260507110208 16 98 3.2 0.0 0.00 0.00 0.00 76 1012.2
20260507105208 16 164 1.6 0.0 0.00 0.00 0.00 72 1012.2
20260507104208 17 294 3.2 0.0 0.00 0.00 0.00 76 1012.2
20260507103208 16 302 0.0 0.0 0.00 0.00 0.00 78 1012.2
20260507102208 15 296 1.6 0.0 0.00 0.00 0.00 78 1012.2
20260507101208 15 260 1.6 0.0 0.00 0.00 0.00 78 1012.4
20260507100208 15 148 1.6 0.0 0.00 0.00 0.00 78 1012.4
20260507095208 15 278 3.2 0.0 0.00 0.00 0.00 80 1012.4
20260507094208 15 316 1.6 0.0 0.00 0.00 0.00 80 1012.4
20260507093208 15 216 1.6 0.0 0.00 0.00 0.00 80 1012.4
20260507092218 15 304 1.6 0.0 0.00 0.00 0.00 80 1012.4
20260507091208 15 218 1.6 0.0 0.00 0.00 0.00 82 1012.2
20260507090208 14 336 0.0 0.0 0.00 0.00 0.00 84 1012.2
20260507085208 14 214 0.0 0.0 0.00 0.00 0.00 86 1012.2
20260507084207 14 302 0.0 0.0 0.00 0.00 0.00 86 1012.2
20260507083208 14 316 0.0 0.0 0.00 0.00 0.00 86 1012.0
20260507082218 13 40 0.0 0.0 0.00 0.00 0.00 88 1012.0
20260507081208 13 332 0.0 0.0 0.00 0.00 0.00 88 1012.0
20260507080208 13 328 0.0 0.0 0.00 0.00 0.00 90 1012.2
20260507075208 13 328 0.0 0.0 0.00 0.00 0.00 90 1012.0
20260507074208 13 328 0.0 0.0 0.00 0.00 0.00 90 1012.0
20260507073207 12 356 0.0 0.0 0.00 0.00 0.00 90 1012.2
20260507072217 12 356 0.0 0.0 0.00 0.00 0.00 90 1012.0
20260507071208 12 18 0.0 0.0 0.00 0.00 0.00 92 1012.0
20260507070208 12 18 0.0 0.0 0.00 0.00 0.00 92 1011.8
20260507065208 12 18 0.0 0.0 0.00 0.00 0.00 92 1012.0
20260507064208 12 288 0.0 0.0 0.00 0.00 0.00 92 1012.0
20260507063207 12 276 0.0 0.0 0.00 0.00 0.00 92 1011.8
20260507062213 12 274 0.0 0.0 0.00 0.00 0.00 92 1011.8
20260507061208 12 274 0.0 0.0 0.00 0.00 0.00 94 1011.8
20260507060208 12 274 0.0 0.0 0.00 0.00 0.00 94 1011.6
20260507055208 12 274 0.0 0.0 0.00 0.00 0.00 94 1011.4
20260507054208 12 274 0.0 0.0 0.00 0.00 0.00 94 1011.4
20260507053208 12 274 0.0 0.0 0.00 0.00 0.00 94 1011.4
20260507052219 12 274 0.0 0.0 0.00 0.00 0.00 94 1011.4
20260507051208 12 274 0.0 0.0 0.00 0.00 0.00 94 1011.4
20260507050208 12 274 0.0 0.0 0.00 0.00 0.00 94 1011.4
20260507045208 12 274 0.0 0.0 0.00 0.00 0.00 94 1011.4
20260507044208 12 274 0.0 0.0 0.00 0.00 0.00 94 1011.2
20260507043208 12 274 0.0 0.0 0.00 0.00 0.00 94 1011.2
20260507042213 12 274 0.0 0.0 0.00 0.00 0.00 94 1011.2
20260507041208 12 274 0.0 0.0 0.00 0.00 0.00 94 1011.2
20260507040209 12 274 0.0 0.0 0.00 0.00 0.00 94 1011.2
20260507035208 12 274 0.0 0.0 0.00 0.00 0.00 94 1011.2
20260507034208 12 274 0.0 0.0 0.00 0.00 0.00 94 1011.0
20260507033208 12 274 0.0 0.0 0.00 0.00 0.00 94 1011.0
20260507032218 12 274 0.0 0.0 0.00 0.00 0.00 94 1011.0
20260507031208 12 274 0.0 0.0 0.00 0.00 0.00 94 1011.0
20260507030208 12 274 0.0 0.0 0.00 0.00 0.00 94 1011.0
20260507025207 12 274 0.0 0.0 0.00 0.00 0.00 94 1011.0
20260507024208 12 274 0.0 0.0 0.00 0.00 0.00 94 1011.2
20260507023208 12 274 0.0 0.0 0.00 0.00 0.00 94 1011.2
20260507022218 12 274 0.0 0.0 0.00 0.00 0.00 94 1011.2
20260507021208 12 274 0.0 0.0 0.00 0.00 0.00 94 1011.0
20260507020208 12 274 0.0 0.0 0.00 0.00 0.00 94 1011.0
20260507015207 12 274 0.0 0.0 0.00 0.00 0.00 94 1011.0
20260507014208 12 274 0.0 0.0 0.00 0.00 0.00 94 1011.0
20260507013208 12 274 0.0 0.0 0.00 0.00 0.00 94 1011.0
20260507012218 12 274 0.0 0.0 0.00 0.00 0.00 94 1011.0
20260507011208 12 274 0.0 0.0 0.00 0.00 0.00 94 1010.8
20260507010208 12 274 0.0 0.0 0.00 0.00 0.00 94 1011.0
20260507005208 12 274 0.0 0.0 0.00 0.00 0.00 94 1011.0
20260507004208 12 276 0.0 0.0 0.00 0.00 0.00 94 1011.0
20260507003208 12 276 0.0 0.0 0.00 0.00 0.00 94 1011.0
20260507002218 12 248 0.0 0.0 0.00 0.00 0.00 94 1011.2
20260507001208 12 262 0.0 0.0 0.00 0.00 0.00 94 1011.2
20260507000208 12 262 0.0 0.0 0.00 0.00 0.00 94 1011.2
20260506235208 12 262 0.0 0.0 0.00 0.00 0.00 94 1011.2
20260506234208 12 262 0.0 0.0 0.00 0.00 0.00 94 1011.2
20260506233208 12 282 0.0 0.0 0.00 0.00 0.00 94 1011.2
20260506232208 12 280 0.0 0.0 0.00 0.00 0.00 94 1011.2
20260506231208 12 294 0.0 0.0 0.00 0.00 0.00 94 1011.2
20260506230208 12 322 0.0 0.0 0.00 0.00 0.00 94 1011.2
20260506225208 12 322 0.0 0.0 0.00 0.00 0.00 94 1011.2
20260506224208 12 214 0.0 0.0 0.00 0.00 0.00 94 1011.2
20260506223208 12 186 0.0 0.0 0.00 0.00 0.00 94 1011.2
20260506222208 12 192 0.0 0.0 0.00 0.00 0.00 94 1011.0
20260506221208 12 188 0.0 0.0 0.00 0.00 0.00 94 1011.0
20260506220208 12 188 0.0 0.0 0.00 0.00 0.00 94 1011.0
20260506215208 12 296 0.0 0.0 0.00 0.00 0.00 94 1011.0
20260506214208 12 166 0.0 0.0 0.00 0.00 0.00 94 1011.0
20260506213208 12 162 0.0 0.0 0.00 0.00 0.00 94 1010.8
20260506212208 12 258 0.0 0.0 0.00 0.00 0.00 94 1010.8
20260506211208 12 258 0.0 0.0 0.00 0.00 0.00 94 1010.8
20260506210208 12 264 0.0 0.0 0.03 0.00 0.00 94 1010.8
20260506205208 12 292 0.0 0.0 0.00 0.00 0.00 94 1010.6
20260506204208 13 288 0.0 0.0 0.00 0.00 0.00 94 1010.6
20260506203208 13 288 0.0 0.0 0.00 0.00 0.00 94 1010.6
20260506202217 13 280 0.0 0.0 0.00 0.00 0.00 94 1010.4
20260506201208 13 278 0.0 0.0 0.00 0.00 0.00 94 1010.4
20260506200208 13 304 0.0 0.0 0.13 0.00 0.00 94 1010.2
20260506195208 13 322 0.0 0.0 0.00 0.00 0.00 92 1010.2
20260506194208 13 322 0.0 0.0 0.00 0.00 0.00 92 1010.0
20260506193208 13 322 0.0 0.0 0.00 0.00 0.00 92 1009.8
20260506192213 13 322 0.0 0.0 0.00 0.00 0.00 92 1009.6
20260506191208 13 342 0.0 0.0 0.00 0.00 0.00 92 1009.6
20260506190208 13 304 1.6 0.0 0.10 0.00 0.00 92 1009.2
20260506185208 13 176 0.0 0.0 0.00 0.00 0.00 92 1009.2
20260506184208 13 160 1.6 0.0 0.00 0.00 0.00 92 1009.0
20260506183209 13 162 1.6 0.0 0.00 0.00 0.00 92 1009.0
20260506182218 13 184 1.6 0.0 0.00 0.00 0.00 92 1009.0
20260506181208 13 162 1.6 0.0 0.00 0.00 0.00 92 1008.8
20260506180208 13 148 1.6 0.0 0.13 0.00 0.00 92 1008.8
20260506175208 13 274 1.6 0.0 0.00 0.00 0.00 90 1008.6
20260506174208 14 196 1.6 0.0 0.00 0.00 0.00 90 1008.6
20260506173208 14 198 3.2 0.0 0.00 0.00 0.00 88 1008.4
20260506172217 14 188 1.6 0.0 0.00 0.00 0.00 86 1008.4
20260506171208 14 290 1.6 0.0 0.00 0.00 0.00 86 1008.4
20260506170208 14 236 3.2 0.0 0.00 0.00 0.00 88 1008.4
20260506165208 14 250 1.6 0.0 0.00 0.00 0.00 88 1008.2